FENGYUN 1C DEB

Satellite information

Favourite Embed

Satellite Type and Status

DEBRISIN ORBIT

Key statistics

Satellite FENGYUN 1C DEB at a glance.

Uptime

9617

Days in orbit

Revolutions

≈ 13.2

Per day

Orbit

SSO

Sun Synchronous Orbit

Inclination

102.4

Latest

Satellite identification and parameters

Extended collection of information and parameters for FENGYUN 1C DEB.

Object identification

Identified? True

Debris? True

Object name: FENGYUN 1C DEB

International designator: 1999-025CQE

Object number (NORAD): 32088

Object ID (CCSDS): 32088

Country: PEOPLES REPUBLIC OF CHINA (PRC)

Current information (Y/N): Y

RCS size: SMALL

Orbital parameters

Period: 108.712 minutes

Inclination: 102.4012 deg

SMA: 7545.322 km

Apoapsis: 1510.8 km

Periapsis: 823.574 km

RAAN: 90.5844 deg

Eccentricy: 0.04553991

Argument of periapsis: 217.4851 deg

Mean anomaly: 139.3681 deg

Mean motion: 13.24604134 rev/day

Mean motion (dot): 0.00001761 rev/day2

B* drag term: 0.0024257989 1/REarth

Two-line elements (TLE)

Creation date: Sept. 1, 2025, 7:24 p.m.

Reference frame: TEME

Reference center: EARTH

Epoch: Sept. 1, 2025, 7:53 a.m. UTC

TLE line 0: 0 FENGYUN 1C DEB

TLE line 1: 1 32088U 99025CQE 25244.32907470 .00001761 00000-0 24258-2 0 9993

TLE line 2: 2 32088 102.4012 90.5844 0455399 217.4851 139.3681 13.24604134584888

Live tracking on map

Real-time ground track for satellite FENGYUN 1C DEB.

In-orbit conjunctions

A list of the most updated potential collisions computed for object FENGYUN 1C DEB.

Target Orbit TCA Probability of collision Miss distance Type
SL-3 R/B LEO 2025-08-22 00:55:24 0.0001827156 647.0 (m) ROCKET BODY
COSMOS 1999 LEO 2024-12-24 18:22:36 0.000189169 474.0 (m) PAYLOAD

Associated space launch

Chinese polar orbiting meteorological satellite

FENGYUN 1C DEB was lifted into orbit during the mission ‘Long March 4B | Feng Yun 1C’, on board a Long March 4B space rocket.

The launch took place on May 10, 1999, 1:33 a.m. from Launch Complex 7.

For more information about the launch, click the button.

Launch to space Long March 4B | Feng Yun 1C
Long March 4B | Feng Yun 1C

Agency: N/A

Status: Launch Successful

Launch date: May 10, 1999, 1:33 a.m. UTC

Rocket: Long March 4B

Launch pad: Launch Complex 7

Location: Taiyuan Satellite Launch Center, People's Republic of China

...

Latest news about this satellite

There are no fresh news available about this satellite. Check back as we update our databases every day.


Newsletter sign-up

Weekly statistics, charts and insights to help you stay on top of the space industry.